Weather History for Lompoc, CA

Change the Weather History Date:

Friday, January 18, 2013

  Actual Average Record
Temperature  
Mean Temperature 56 °F -  
Max Temperature 73 °F 67 °F 84 °F (1971)
Min Temperature 39 °F 42 °F 26 °F (1987)
Degree Days  
Heating Degree Days 9    
Growing Degree Days 6 (Base 50)    
Moisture  
Dew Point 28 °F    
Average Humidity 43    
Maximum Humidity 70    
Minimum Humidity 15    
Precipitation  
Precipitation 0.00 in - - ()
Sea Level Pressure  
Sea Level Pressure 30.12 in    
Wind  
Wind Speed 8 mph (East)    
Max Wind Speed 12 mph    
Max Gust Speed -    
Visibility 10 miles    
Events      
Averages and records for this station are not official NWS values.
T = Trace of Precipitation, MM = Missing Value Source: NWS Daily Summary

Daily Weather History Graph

Daily Weather History Graph

Search for Another Location

Airport:

Trip Planner

Search our weather history database for the weather conditions in past years. The results will help you decide how hot, cold, wet, or windy it might be!

Date:

Astronomy

Jan. 18, 2013 Rise Set
Actual Time 7:07 AM PST 5:17 PM PST
Civil Twilight 6:40 AM PST 5:44 PM PST
Nautical Twilight 6:09 AM PST 6:15 PM PST
Astronomical Twilight 5:39 AM PST 6:45 PM PST
Moon 11:09 AM PST (1/18) No Moon Set
Length of Visible Light 11h 04m
Length of Day
10h 10m
Waxing Crescent, 48% of the Moon is Illuminated
Jan 18
Waxing Crescent
Jan 18
First Quarter
Jan 26
Full
Feb 3
Last Quarter
Feb 9
New

Hourly Weather History & Observations

Time (PST) Temp. Windchill Dew Point Humidity Pressure Visibility Wind Dir Wind Speed Gust Speed Precip Events Conditions
12:15 AM - - - N/A% 30.14 in 10.0 mi East 6.9 mph - N/A   Clear
12:35 AM - - - N/A% 30.14 in 10.0 mi East 8.1 mph - N/A   Clear
12:55 AM - - - N/A% 30.14 in 10.0 mi East 8.1 mph - N/A   Clear
1:15 AM - - - N/A% 30.14 in 10.0 mi East 8.1 mph - N/A   Clear
1:35 AM - - - N/A% 30.14 in 10.0 mi East 9.2 mph - N/A   Clear
1:55 AM - - - N/A% 30.14 in 10.0 mi East 10.4 mph - N/A   Clear
2:15 AM - - - N/A% 30.14 in 10.0 mi East 9.2 mph - N/A   Clear
2:35 AM - - - N/A% 30.14 in 10.0 mi East 8.1 mph - N/A   Clear
2:55 AM - - - N/A% 30.13 in 10.0 mi East 9.2 mph - N/A   Clear
3:15 AM - - - N/A% 30.13 in 10.0 mi East 9.2 mph - N/A   Clear
3:35 AM - - - N/A% 30.13 in 10.0 mi East 9.2 mph - N/A   Clear
3:55 AM - - - N/A% 30.13 in 10.0 mi East 9.2 mph - N/A   Clear
4:15 AM - - - N/A% 30.13 in 10.0 mi East 10.4 mph - N/A   Clear
4:35 AM - - - N/A% 30.12 in 10.0 mi East 10.4 mph - N/A   Clear
4:55 AM - - - N/A% 30.12 in 10.0 mi East 9.2 mph - N/A   Clear
5:15 AM - - - N/A% 30.12 in 10.0 mi East 8.1 mph - N/A   Clear
5:35 AM - - - N/A% 30.12 in 10.0 mi East 8.1 mph - N/A   Clear
5:55 AM - - - N/A% 30.12 in 10.0 mi East 8.1 mph - N/A   Clear
6:15 AM - - - N/A% 30.12 in 10.0 mi East 9.2 mph - N/A   Clear
6:35 AM - - - N/A% 30.12 in 10.0 mi East 6.9 mph - N/A   Clear
6:55 AM - - - N/A% 30.13 in 10.0 mi East 8.1 mph - N/A   Clear
7:15 AM - - - N/A% 30.13 in 10.0 mi East 8.1 mph - N/A   Clear
7:35 AM - - - N/A% 30.13 in 10.0 mi East 10.4 mph - N/A   Clear
7:55 AM - - - N/A% 30.14 in 10.0 mi East 9.2 mph - N/A   Clear
8:15 AM - - - N/A% 30.14 in 10.0 mi East 9.2 mph - N/A   Clear
8:35 AM - - - N/A% 30.15 in 10.0 mi East 9.2 mph - N/A   Clear
8:55 AM - - - N/A% 30.16 in 10.0 mi East 8.1 mph - N/A   Clear
9:15 AM - - - N/A% 30.16 in 10.0 mi East 8.1 mph - N/A   Clear
9:35 AM - - - N/A% 30.17 in 10.0 mi ESE 8.1 mph - N/A   Clear
9:55 AM - - - N/A% 30.16 in 10.0 mi East 8.1 mph - N/A   Clear
10:15 AM - - - N/A% 30.17 in 10.0 mi East 8.1 mph - N/A   Clear
10:35 AM - - - N/A% 30.16 in 10.0 mi East 5.8 mph - N/A   Clear
10:55 AM - - - N/A% - - North - - N/A   Unknown
11:15 AM - - - N/A% - - North - - N/A   Unknown
11:35 AM - - - N/A% 30.14 in - Calm Calm - N/A   Unknown
11:55 AM - - - N/A% 30.12 in 10.0 mi Calm Calm - N/A   Clear
12:15 PM - - - N/A% 30.11 in 10.0 mi West 3.5 mph - N/A   Clear
12:35 PM - - - N/A% 30.10 in 10.0 mi West 3.5 mph - N/A   Clear
12:55 PM - - - N/A% 30.09 in 2.0 mi WSW 5.8 mph - N/A   Clear
1:15 PM - - - N/A% 30.09 in - West 5.8 mph - N/A   Unknown
1:35 PM 73.4 °F - 24.8 °F 16% 30.09 in 10.0 mi WNW 10.4 mph - N/A   Clear
1:55 PM 73.4 °F - 23.0 °F 15% 30.09 in 10.0 mi West 11.5 mph - N/A   Clear
2:15 PM 71.6 °F - 23.0 °F 16% 30.09 in 10.0 mi West 11.5 mph - N/A   Clear
2:35 PM 71.6 °F - 23.0 °F 16% 30.09 in 10.0 mi West 9.2 mph - N/A   Clear
2:55 PM 71.6 °F - 23.0 °F 16% 30.09 in 10.0 mi West 10.4 mph - N/A   Clear
3:15 PM 69.8 °F - 26.6 °F 20% 30.09 in 10.0 mi West 11.5 mph - N/A   Clear
3:35 PM 69.8 °F - 24.8 °F 18% 30.09 in 10.0 mi West 11.5 mph - N/A   Clear
3:55 PM 68.0 °F - 24.8 °F 20% 30.09 in 10.0 mi West 9.2 mph - N/A   Clear
4:15 PM 66.2 °F - 26.6 °F 23% 30.10 in 10.0 mi West 9.2 mph - N/A   Clear
4:35 PM 62.6 °F - 30.2 °F 30% 30.10 in 10.0 mi West 8.1 mph - N/A   Clear
4:55 PM 60.8 °F - 30.2 °F 31% 30.10 in 10.0 mi West 6.9 mph - N/A   Clear
5:15 PM 59.0 °F - 28.4 °F 31% 30.10 in 10.0 mi West 8.1 mph - N/A   Clear
5:35 PM 55.4 °F - 28.4 °F 36% 30.11 in 10.0 mi West 5.8 mph - N/A   Clear
5:55 PM 53.6 °F - 30.2 °F 41% 30.11 in 10.0 mi West 3.5 mph - N/A   Clear
6:15 PM 53.6 °F - 30.2 °F 41% 30.11 in 10.0 mi Calm Calm - N/A   Clear
6:35 PM 51.8 °F - 30.2 °F 44% 30.12 in 10.0 mi Calm Calm - N/A   Clear
6:55 PM 48.2 °F - 32.0 °F 54% 30.12 in 10.0 mi East 3.5 mph - N/A   Clear
7:35 PM 44.6 °F 41.4 °F 30.2 °F 57% 30.12 in 10.0 mi East 5.8 mph - N/A   Clear
7:55 PM 44.6 °F 41.4 °F 30.2 °F 57% 30.12 in 10.0 mi East 5.8 mph - N/A   Clear
8:15 PM 42.8 °F 39.3 °F 28.4 °F 57% 30.12 in 10.0 mi East 5.8 mph - N/A   Clear
8:35 PM 42.8 °F 39.3 °F 28.4 °F 57% 30.12 in 10.0 mi East 5.8 mph - N/A   Clear
8:55 PM 42.8 °F 39.3 °F 28.4 °F 57% 30.12 in 10.0 mi East 5.8 mph - N/A   Clear
9:15 PM 41.0 °F 36.4 °F 28.4 °F 61% 30.12 in 10.0 mi East 6.9 mph - N/A   Clear
9:35 PM 41.0 °F 37.1 °F 28.4 °F 61% 30.13 in 10.0 mi East 5.8 mph - N/A   Clear
9:55 PM 41.0 °F 35.8 °F 28.4 °F 61% 30.13 in 10.0 mi East 8.1 mph - N/A   Clear
10:15 PM 41.0 °F 35.8 °F 28.4 °F 61% 30.12 in 10.0 mi East 8.1 mph - N/A   Clear
10:35 PM 42.8 °F 38.0 °F 30.2 °F 61% 30.12 in 10.0 mi East 8.1 mph - N/A   Clear
10:55 PM 39.2 °F 33.6 °F 30.2 °F 70% 30.12 in 10.0 mi East 8.1 mph - N/A   Clear
11:15 PM 41.0 °F 36.4 °F 30.2 °F 65% 30.12 in 10.0 mi East 6.9 mph - N/A   Clear
11:35 PM 39.2 °F 33.6 °F 28.4 °F 65% 30.12 in 10.0 mi East 8.1 mph - N/A   Clear
11:55 PM 39.2 °F 33.0 °F 30.2 °F 70% 30.11 in 10.0 mi East 9.2 mph - N/A   Clear